Total_Precipitation_Accumulation
2.03 2.23 2.23 2.26 2.35 2.41 2.26 2.00 1.92 1.94 2.02 2.09 2.27 2.33 2.28 2.31 2.42 2.49 2.44 2.76 2.90 2.92 2.91 2.89 2.86 3.00 2.99 2.88 2.98 3.17 3.45 3.53 3.17 2.61 2.48 2.42 2.42 2.32 2.34 2.20 2.07 2.03 1.83
1.92 2.12 2.21 2.21 2.26 2.29 2.16 1.98 1.95 2.00 2.06 2.06 2.18 2.22 2.12 2.14 2.34 2.37 2.41 2.69 2.85 2.73 2.73 2.74 2.53 2.60 2.67 2.55 2.68 2.76 2.90 3.17 3.12 2.78 2.69 2.65 2.60 2.47 2.48 2.44 2.22 2.00 1.73
1.87 2.16 2.34 2.38 2.35 2.26 2.08 1.86 1.80 1.80 1.90 1.94 1.97 2.01 2.06 2.20 2.30 2.29 2.30 2.31 2.34 2.41 2.63 2.75 2.54 2.52 2.43 2.43 2.45 2.43 2.51 2.64 2.89 2.81 2.67 2.71 2.64 2.63 2.55 2.34 2.18 2.08 1.73
1.78 1.99 2.10 1.99 1.92 1.92 1.84 1.71 1.66 1.68 1.73 1.80 1.89 1.98 2.05 2.12 2.17 2.24 2.29 2.22 2.20 2.26 2.40 2.47 2.44 2.41 2.34 2.43 2.34 2.32 2.41 2.58 2.71 2.75 2.66 2.75 2.74 2.70 2.71 2.48 2.47 2.34 2.12
1.45 1.56 1.68 1.67 1.64 1.62 1.68 1.73 1.75 1.83 1.80 1.87 1.95 1.96 1.95 1.94 1.87 1.91 1.99 2.01 2.14 2.10 2.02 2.04 2.06 2.10 2.08 2.12 1.97 2.14 2.39 2.53 2.58 2.59 2.59 2.76 2.90 2.92 2.73 2.66 2.73 2.69 2.47
1.25 1.36 1.58 1.70 1.71 1.70 1.76 1.88 1.93 1.89 1.89 1.92 1.87 1.93 1.92 1.66 1.83 1.85 1.85 1.96 2.04 2.05 1.97 1.87 1.77 1.77 1.69 1.69 1.65 1.74 2.03 2.26 2.39 2.51 2.49 2.61 2.84 3.04 3.16 3.12 2.98 2.86 2.77
1.36 1.50 1.68 1.79 1.86 1.88 1.84 1.97 1.93 1.93 2.01 1.96 1.89 1.90 1.93 1.97 2.01 1.83 1.70 1.67 1.77 1.84 1.83 1.81 1.59 1.50 1.67 1.64 1.67 1.65 1.67 1.83 1.99 2.21 2.30 2.27 2.46 2.77 3.04 2.98 3.12 3.15 3.05
1.64 1.83 1.93 2.03 1.97 1.95 1.95 1.98 2.07 2.16 2.19 2.16 2.10 2.02 2.01 1.97 1.96 1.75 1.75 1.67 1.70 1.71 1.74 1.78 1.77 1.69 1.74 1.86 1.83 1.74 1.62 1.58 1.68 1.77 1.88 2.01 2.25 2.58 2.85 2.83 2.91 3.01 3.04
1.80 1.89 2.04 2.13 2.17 2.18 2.18 2.15 2.24 2.36 2.31 2.23 2.18 2.18 2.11 2.12 2.20 2.01 2.04 1.89 1.88 1.89 1.91 1.91 1.89 1.79 1.93 1.88 1.78 1.76 1.70 1.68 1.75 1.84 1.80 1.91 2.16 2.31 2.50 2.60 2.57 2.64 2.58
1.77 1.89 2.06 2.28 2.33 2.35 2.49 2.58 2.53 2.48 2.33 2.34 2.33 2.30 2.30 2.33 2.57 2.39 2.23 2.07 2.08 2.07 2.16 2.13 2.17 2.00 1.99 1.92 1.77 1.79 1.80 1.82 1.92 1.88 1.84 1.80 1.83 2.05 2.31 2.34 2.51 2.69 2.56
1.80 1.94 2.13 2.30 2.38 2.46 2.63 2.71 2.67 2.61 2.57 2.52 2.45 2.49 2.48 2.47 2.64 2.41 2.23 2.09 2.15 2.29 2.27 2.18 2.22 2.25 2.04 2.05 1.99 1.89 1.88 1.89 1.89 1.91 1.91 1.88 1.89 1.99 2.10 2.22 2.47 2.65 2.63
1.73 1.87 2.01 2.16 2.18 2.27 2.54 2.64 2.71 2.72 2.66 2.57 2.52 2.39 2.42 2.40 2.34 2.22 2.13 2.10 2.19 2.30 2.34 2.26 2.22 2.23 2.01 1.94 1.80 1.77 1.82 1.71 1.63 1.75 1.76 1.79 1.80 1.80 1.89 2.10 2.31 2.37 2.41
1.80 1.93 2.09 2.17 2.22 2.33 2.44 2.48 2.57 2.63 2.56 2.45 2.46 2.40 2.35 2.36 2.36 2.13 1.92 1.89 1.94 1.96 2.09 2.23 2.16 2.05 1.85 1.65 1.61 1.59 1.50 1.38 1.38 1.44 1.43 1.42 1.47 1.56 1.69 1.85 2.07 2.18 2.18
1.88 1.95 2.05 2.17 2.18 2.25 2.37 2.48 2.59 2.68 2.74 2.62 2.49 2.39 2.37 2.33 2.21 2.03 1.84 1.76 1.87 1.98 2.06 2.12 2.00 1.89 1.69 1.53 1.44 1.34 1.29 1.35 1.38 1.36 1.39 1.46 1.52 1.58 1.61 1.67 1.82 1.96 2.00
1.83 1.90 1.95 1.99 2.10 2.21 2.27 2.37 2.36 2.43 2.45 2.43 2.36 2.33 2.32 2.25 2.09 2.01 1.83 1.72 1.83 2.01 2.07 2.07 1.93 1.86 1.76 1.65 1.56 1.50 1.47 1.48 1.44 1.43 1.47 1.46 1.47 1.53 1.52 1.53 1.65 1.68 1.64
1.89 1.92 1.87 1.83 1.92 1.99 2.08 2.08 2.09 2.01 2.00 1.94 1.95 1.94 1.86 1.78 1.67 1.56 1.54 1.56 1.65 1.83 1.83 1.89 1.97 1.93 1.86 1.77 1.67 1.58 1.53 1.49 1.45 1.47 1.52 1.50 1.46 1.46 1.52 1.49 1.53 1.57 1.49
1.81 1.86 1.86 1.85 1.88 1.91 1.99 1.95 1.97 1.90 1.80 1.71 1.66 1.67 1.70 1.66 1.60 1.59 1.62 1.67 1.64 1.70 1.63 1.73 1.84 1.81 1.79 1.74 1.62 1.50 1.46 1.48 1.56 1.55 1.55 1.54 1.57 1.58 1.61 1.57 1.53 1.58 1.54
1.57 1.67 1.80 1.89 1.93 1.94 2.00 2.06 2.12 2.14 2.03 1.81 1.67 1.60 1.54 1.52 1.47 1.51 1.60 1.57 1.48 1.49 1.52 1.65 1.71 1.68 1.64 1.60 1.56 1.50 1.49 1.54 1.63 1.59 1.57 1.58 1.60 1.60 1.62 1.61 1.56 1.54 1.55
1.48 1.51 1.53 1.62 1.74 1.82 1.82 1.86 1.94 2.02 2.03 1.92 1.77 1.67 1.60 1.52 1.43 1.40 1.38 1.25 1.27 1.40 1.55 1.59 1.64 1.63 1.53 1.46 1.43 1.39 1.39 1.44 1.54 1.61 1.59 1.64 1.67 1.70 1.69 1.65 1.68 1.70 1.61
1.50 1.53 1.50 1.47 1.47 1.53 1.60 1.67 1.74 1.85 1.92 1.89 1.82 1.71 1.60 1.50 1.28 1.20 1.13 1.10 1.18 1.26 1.34 1.37 1.41 1.40 1.31 1.32 1.37 1.34 1.31 1.39 1.50 1.56 1.54 1.61 1.69 1.70 1.62 1.60 1.60 1.62 1.54
1.48 1.48 1.49 1.48 1.48 1.52 1.58 1.65 1.68 1.73 1.78 1.70 1.59 1.50 1.43 1.25 1.12 1.04 1.03 1.08 1.15 1.22 1.28 1.34 1.34 1.28 1.28 1.33 1.40 1.42 1.38 1.44 1.52 1.55 1.57 1.61 1.69 1.71 1.63 1.59 1.57 1.60 1.61
1.50 1.43 1.38 1.39 1.46 1.52 1.59 1.67 1.70 1.70 1.64 1.56 1.48 1.36 1.32 1.15 1.06 1.04 1.06 1.11 1.16 1.25 1.29 1.31 1.34 1.33 1.29 1.31 1.39 1.46 1.50 1.51 1.56 1.58 1.55 1.58 1.67 1.70 1.73 1.70 1.71 1.73 1.75
1.61 1.50 1.43 1.42 1.44 1.47 1.50 1.56 1.60 1.57 1.52 1.42 1.31 1.24 1.17 1.12 1.05 1.07 1.13 1.21 1.28 1.28 1.25 1.23 1.26 1.27 1.26 1.29 1.30 1.38 1.45 1.50 1.53 1.53 1.60 1.64 1.64 1.63 1.65 1.62 1.63 1.66 1.68
1.65 1.55 1.44 1.36 1.38 1.42 1.46 1.53 1.52 1.46 1.37 1.32 1.28 1.25 1.20 1.21 1.17 1.15 1.21 1.27 1.22 1.14 1.12 1.13 1.15 1.14 1.17 1.24 1.24 1.25 1.30 1.39 1.40 1.39 1.42 1.48 1.50 1.52 1.59 1.58 1.59 1.61 1.67
1.63 1.56 1.45 1.36 1.35 1.37 1.39 1.46 1.49 1.46 1.38 1.28 1.25 1.27 1.33 1.38 1.32 1.26 1.23 1.21 1.13 1.05 1.00 1.08 1.12 1.11 1.13 1.15 1.19 1.21 1.28 1.28 1.26 1.28 1.30 1.36 1.42 1.51 1.58 1.59 1.60 1.60 1.65
1.44 1.36 1.28 1.22 1.20 1.25 1.31 1.39 1.43 1.45 1.45 1.40 1.38 1.38 1.34 1.33 1.29 1.22 1.17 1.15 1.11 1.07 1.03 1.06 1.11 1.11 1.16 1.15 1.09 1.10 1.10 1.03 1.05 1.14 1.12 1.17 1.31 1.44 1.53 1.62 1.63 1.67 1.66